sat.trackr.live / text

‹ back to catalog

KUIPER-00080

NORAD 64827 · 2025-151M

PAYLOAD ACTIVE UNKNOWN

§ Identity

Operator
Country
US
Launch date
2025-07-16
Launch site
AFETR
Launch vehicle
Mass (kg)
RCS (m²)

External: N2YO · Heavens-Above · Gunter

§ Orbital elements

Epoch: 2026-05-24T21:35:56.931072Z

Period
97.30 min
Inclination
51.8997°
Eccentricity
0.0000735
Mean motion
14.79932373 rev/d
Perigee alt
629.0 km
Apogee alt
630.1 km
Semi-major
7,007.7 km
B*
7.0516e-5
RAAN
323.5648°
Arg perigee
118.8317°
Mean anomaly
241.2720°
Rev number
4,659

§ Raw data

KUIPER-000801 64827U 25151M   26144.89996448  .00000316  00000+0  70516-4 0  99972 64827  51.8997 323.5648 0000735 118.8317 241.2720 14.79932373 46593

JSON: /api/v1/satellites/64827 · /tle

For live sub-satellite position, see the globe view (requires WebGL).

§ Visibility from observer

Set your observer location to see the next 7 days of passes ≥ 10°. The values pass through the URL so the page stays shareable.

No JS? Fill the form by hand. The geolocation button needs JavaScript.